Showing default

KUIPER-00468, 68873

Orbit data source: Space-Track

KUIPER-00468, 68873 is an American payload satellite in LEO that was launched on Tue, 28 Apr 2026 UTC launched from the Air Force Eastern Test Range (AFETR). Payload-class satellites include a variety of spacecraft equipped with specific instruments for various scientific and technological missions. These include communications satellites like Starlink; space stations such as the ISS; scientific satellites like the Hubble; Earth observation satellites from companies like Planet Labs, Umbra, and HawkEye 360; GPS; miniature CubeSats for education and research; and military/defense satellites.

Loading next visibility...
Identifier
68873, 2026-095K
Orbit
LEO
Country
Flag of USUS
Related business
None
Manufacturer
Unknown
Mission
Operational spacecraft
Bus & Motor
Unknown
Mass
Unknown
Launch date (UTC)
2026-04-28 (4 days ago)
Launch vehicle
Unknown
Launch site
Air Force Eastern Test Range (AFETR)
Object type
Payload
Rocket body
Debris
Shape & HBR
Unknown
Radar Cross Section
RCS unknown

Expand to show TLE details & history
Last TLE update: 7 hours ago

TLE from 7 hours ago
0 KUIPER-00468
1 68873U 26095K   26122.16670139 -.00001015  00000-0 -16636-4 0  9995
2 68873  51.8812 104.9009 0005209 111.4891  94.1833 15.37465722  1307
Epoch: 2026-05-02T04:00Z
TLE epoch observation values (Epoch: 2026-05-02T04:00:03.000Z)
Latitude
-20.1521°
Longitude
21.43932°
Altitude
459.337 km
Speed
7.637 km/s
True Right ascension
20h 06m 09s
True Declination
-20° 02' 11"
Sunlit
Object was in daylight at epoch
Visualization orbit readout
Latitude
Unknown
Longitude
Unknown
Altitude
Unknown
Speed
Unknown
Apparent Right ascension
Unknown
Apparent Declination
Unknown
Sunlit
N/A
Visualization observer readout
Local Sidereal Time
18:37:47
Azimuth
Unknown
Elevation
Unknown
Doppler factor
Unknown
Orbital elements
Apogee altitude
457.631 km
Perigee altitude
450.513 km
Semi-major axis
6,832.209 km
Eccentricity
0.00052
Inclination
51.8812°
RAAN
104.9009°
Arg. of periapsis
111.4891°
True anomaly
94.24283°
Mean anomaly
94.1833°
Eccentric anomaly
94.21306°
Mean motion
3.84327 °/min
Orbital period
93.67 mins
BSTAR
-0.000016636
Loading maneuver chart data...
Computing Atmospheric mass density...
Loading historical data...
Loading historical data...
Loading historical data...
Loading historical data...
Loading historical data...
Loading historical data...
Loading historical data...

Documentation

Showing up to 5 results
|